[Date Prev][Date Next][Thread Prev][Thread Next] - [Date Index][Thread Index][Author Index]
2 LIne ISS Keps 8-12
- Subject: [sarex] 2 LIne ISS Keps 8-12
- From: "Dave Larsen PhD" <doc@xxxxxxxxxxx>
- Date: Mon, 12 Aug 2002 05:53:00 -0700
ISS
1 25544U 98067A 02224.38946759 .00022978 00000-0 31027-3 0 378
2 25544 51.6384 130.8691 0017573 130.6983 24.5414 15.57497303212795
----
Via the sarex mailing list at AMSAT.ORG courtesy of AMSAT-NA.
To unsubscribe, send "unsubscribe sarex" to Majordomo@amsat.org
AMSAT Home